Content
SEND FEEDBACK

Daily
Averages
Monthly
Summary
United States of America

ELLENTON, FLORIDA


Home > North America > United States > Florida
Elevation: 18 feet     Latitude: 27 32N     Longitude: 082 31W

WEATHER
 
SELECT A DAY
Number of Records: 188,684;   Date Range: 1/1/95 - 12/19/14
 
SHARE

PRINT THIS DATA

[ ← Previous Day ]
WEATHER ALMANAC - JANUARY 31, 2013
[ Next Day → ]
[ °C ]   °F
Weather ElementAverageHighLow
Temperature59.5 °F66.2 °F (1:23 am)51.1 °F (8:53 pm)
Dewpoint46.6 °F62.6 °F (1:23 am)32 °F (6:53 pm)
Humidity65.6 %94 % (5:19 am)33 % (1:53 pm)
Barometer30.10 in30.24 in (11:53 pm)29.98 in (1:23 am)
Wind Speed10.5 mph25.3 mph (1:26 am)
Wind Gust41.4 mph (1:23 am)
Weather ElementAverage
Visibility9.6 mi
Wind DirectionNW (317.5 °)

Weather ElementTotal
Precipitation0.11 in
Heating Degree Days6.3 (Base 65)
Growing Degree Days8.7 (Base 50)
Averaged from 28 records on January 31, 2013
WEATHER CONDITIONS BREAKOUT
WIND DIRECTION BREAKOUT
WEATHER BY HOUR - JANUARY 31, 2013
[ °C ]   °F
Local TimeTemperatureDewpointHumidityBarometerVisibilityWind DirectionWind SpeedGust SpeedPrecipitationEventsConditions
1:23 AM66.2 °F62.6 °F88 %29.98 in10.0 miNNW (330°)16.1 mph41.4 mph0.00 inRainLight Rain
1:26 AM64.4 °F60.8 °F88 %29.98 in10.0 miNNW (330°)25.3 mph41.4 mph0.00 inRainLight Rain
1:34 AM62.6 °F59.0 °F88 %29.99 in8.0 miNNW (330°)20.7 mph34.5 mph0.01 inRainLight Rain
1:53 AM61.0 °F57.0 °F87 %29.99 in10.0 miNW (320°)13.8 mph20.7 mph0.02 inRainLight Rain
2:53 AM60.1 °F57.9 °F93 %30.00 in4.0 miNNW (340°)5.8 mph0.03 inRainLight Rain
3:05 AM60.8 °F57.2 °F88 %30.00 in7.0 miNorth (350°)5.8 mph0.01 inRainLight Rain
3:23 AM60.8 °F57.2 °F88 %29.99 in10.0 miNNW (340°)4.6 mph0.01 inOvercast
3:53 AM60.1 °F57.0 °F90 %29.99 in10.0 miNorth (350°)5.8 mph0.01 inOvercast
4:53 AM61.0 °F59.0 °F93 %30.00 in10.0 miNorth (350°)4.6 mph0.00 inRainLight Rain
5:19 AM60.8 °F59.0 °F94 %30.01 in9.0 miNorth (350°)6.9 mph0.02 inRainLight Rain
6:53 AM62.1 °F55.0 °F78 %30.06 in10.0 miNNW (340°)11.5 mph18.4 mphOvercast
7:53 AM60.1 °F48.9 °F67 %30.09 in10.0 miNNW (340°)10.4 mphClear
8:53 AM61.0 °F51.1 °F70 %30.12 in10.0 miNNW (340°)16.1 mph23.0 mphPartly Cloudy
9:53 AM62.1 °F46.0 °F56 %30.14 in10.0 miNNW (330°)12.7 mphClear
10:53 AM63.0 °F44.1 °F50 %30.16 in10.0 miNNW (330°)16.1 mphClear
11:53 AM63.0 °F43.0 °F48 %30.16 in10.0 miNorthClear
12:53 PM63.0 °F43.0 °F48 %30.15 in10.0 miNorth (350°)15.0 mph19.6 mph
1:53 PM63.0 °F33.1 °F33 %30.15 in10.0 miNorth (10°)11.5 mph21.9 mphClear
2:53 PM62.1 °F34.0 °F35 %30.16 in10.0 miNW (320°)15.0 mph21.9 mphClear
3:53 PM61.0 °F36.0 °F39 %30.17 in10.0 miNNW (340°)12.7 mphClear
4:53 PM59.0 °F35.1 °F41 %30.17 in10.0 miNNW (340°)11.5 mphClear
5:53 PM57.0 °F33.1 °F40 %30.17 in10.0 miNorth (350°)8.1 mphClear
6:53 PM54.0 °F32.0 °F43 %30.18 in10.0 miNNW (340°)8.1 mphClear
7:53 PM52.0 °F32.0 °F47 %30.21 in10.0 miNorth (350°)5.8 mphClear
8:53 PM51.1 °F35.1 °F54 %30.22 in10.0 miNorth (360°)3.5 mphClear
9:53 PM51.1 °F37.9 °F61 %30.22 in10.0 miNorth (360°)5.8 mphClear
10:53 PM51.1 °F39.0 °F63 %30.23 in10.0 miNorth (350°)5.8 mphClear
11:53 PM51.1 °F39.9 °F66 %30.24 in10.0 miNorth (350°)5.8 mphClear
Hourly data recorded from KSRQ, located miles away from Ellenton, Florida







STORIES FROM OUR PARTNERS